Location: Bennemühlen
(52.5740°N, 9.7135°E)
Time: 17:15:01
(UTC+00:00)

Tiros 1 despin weight - Pass Details

Date: 19 February 2026
Orbit: 556 x 593 km, 48.2° (Epoch: 11 March)

Event Time Altitude Azimuth Distance (km) Brightness Sun altitude
Rises 17:10:27 0° 266° (W) 2,736 ? -5.1°
Reaches altitude 10° 17:12:46 10° 260° (W) 1,838 ? -5.5°
Maximum altitude 17:16:45 44° 188° (S) 779 ? -6.1°
Drops below altitude 10° 17:20:45 10° 116° (ESE) 1,839 ? -6.7°
Enters shadow 17:21:56 - 112° (ESE) 2,294 ? -6.8°
Sets 17:23:04 0° 110° (ESE) 2,736 - -7.0°
